Theta_e
336 344 350 351 351 353 354 357 358 361 361 342 342 347 351 359 355 356 354 354 353 350 348 346 346 346 347 347 348 347 346 350 350 344 342 348 350 351 353 350 352 353 352 350 350 349 349 350 350 352 352 351 350 351 351 352 352 351 349 349 351 350 351 352 353 353 353 352 353 354 355 355 354 355 354 354 355 354 354 353 353 353 354 355 354 353 351 350 351 350 350 351 352 353 352 351 351
347 350 350 351 351 355 358 358 357 357 352 339 343 350 351 358 353 354 355 353 352 346 345 345 345 347 347 346 344 346 348 347 347 347 347 349 349 351 352 350 351 351 350 349 352 353 352 350 350 352 351 351 351 352 351 349 349 350 351 351 352 352 353 353 353 353 354 354 354 354 355 354 355 355 352 352 353 354 354 353 353 353 354 354 355 354 351 349 351 351 352 353 353 352 352 351 352
352 351 350 352 353 356 358 359 357 351 348 342 345 355 355 355 354 355 354 350 348 343 345 344 345 347 345 345 345 347 347 344 343 345 347 349 350 351 351 351 351 351 350 350 352 353 352 350 350 352 351 351 352 351 349 347 349 350 351 351 351 352 352 352 353 354 354 354 354 354 354 354 355 353 350 351 353 354 354 352 351 352 354 353 354 354 352 351 352 352 352 353 351 350 349 349 352
350 351 352 353 355 357 361 363 364 354 346 342 341 355 358 354 356 353 350 347 345 345 345 345 347 347 346 347 345 347 345 342 343 344 346 348 350 351 351 351 351 350 350 351 352 353 352 349 350 352 352 351 349 348 347 348 350 350 349 350 351 351 351 352 353 353 353 353 353 353 353 354 353 352 350 351 353 353 352 352 351 352 353 351 350 351 352 353 354 353 352 353 350 350 348 348 351
350 352 351 355 358 358 362 363 368 359 347 344 344 357 359 353 356 350 347 347 346 348 347 348 349 347 347 346 344 346 344 340 342 345 347 349 350 351 351 351 350 349 351 352 352 354 351 347 351 352 351 350 348 348 348 349 349 349 349 349 349 350 350 351 352 351 352 352 352 352 352 351 351 351 349 349 351 351 350 350 351 351 351 351 350 350 353 353 354 352 352 353 351 349 347 346 350
351 353 352 356 358 357 360 356 358 357 355 357 355 359 358 354 354 348 348 348 348 349 348 349 347 347 347 346 344 344 342 341 344 347 349 350 350 351 350 350 349 350 352 352 351 352 350 349 353 352 350 349 349 350 348 349 348 347 348 349 350 349 350 351 350 349 350 350 351 352 352 350 349 350 349 349 350 350 350 351 351 350 350 351 351 351 353 353 353 353 352 352 350 348 346 346 349
352 353 354 357 359 359 358 354 355 358 358 362 359 360 358 353 351 349 350 350 352 350 348 347 344 346 346 346 345 343 344 344 346 347 349 350 350 351 350 349 349 351 353 353 352 351 349 351 353 350 349 350 350 349 347 349 350 349 349 350 351 351 351 351 349 349 351 350 349 351 352 350 349 351 350 350 350 349 351 352 351 350 349 350 351 350 351 353 351 352 353 351 348 346 344 345 348
353 354 355 358 363 361 356 358 362 364 362 362 359 359 357 353 351 350 351 351 355 351 347 346 343 346 346 343 345 345 345 346 347 348 349 350 351 351 350 350 349 351 353 353 354 351 350 352 351 347 348 350 349 349 349 351 351 351 350 350 350 350 352 351 350 349 350 351 349 350 351 350 350 351 350 349 350 350 351 352 351 350 349 348 350 350 350 352 351 352 352 348 345 343 341 343 346
355 355 356 357 362 357 356 361 362 363 365 362 359 359 356 353 351 351 352 352 352 350 347 346 345 348 346 346 346 345 346 347 347 348 349 350 351 351 350 349 348 351 353 354 354 353 353 352 349 347 348 350 349 350 352 352 351 350 349 350 350 350 351 352 351 350 351 350 350 350 351 350 350 351 350 350 350 351 352 351 351 351 349 349 349 350 350 351 351 352 351 344 340 340 341 343 344
357 356 357 360 358 348 352 361 360 361 364 361 361 360 357 355 353 352 351 351 351 349 348 347 346 347 346 347 346 345 346 346 346 348 349 350 351 350 349 347 346 350 351 352 352 353 354 351 348 347 348 350 350 351 352 351 350 350 349 349 350 352 351 352 351 351 351 351 351 350 351 351 350 351 351 351 351 351 351 351 351 351 350 349 349 350 351 351 351 352 351 345 339 338 340 341 342
359 357 357 359 352 343 350 359 357 362 364 360 361 359 357 356 355 354 351 350 349 349 349 347 346 344 344 345 345 345 346 346 346 348 348 349 350 349 347 345 345 349 350 349 349 352 353 350 349 349 350 350 350 351 351 351 350 350 349 349 351 352 351 351 351 350 350 351 351 350 350 350 350 351 351 351 351 350 350 350 350 350 350 349 349 350 350 350 350 350 350 349 345 341 340 339 341
358 359 361 356 351 350 356 358 357 362 364 360 362 360 357 357 356 355 352 349 348 349 348 348 345 343 345 345 344 344 345 345 346 348 348 349 348 348 346 345 345 348 349 347 349 352 352 350 350 350 350 350 350 351 350 350 350 350 350 350 350 351 350 350 351 350 350 350 350 349 349 350 350 350 352 351 350 349 350 349 348 348 349 348 348 349 350 349 349 349 348 349 350 345 341 340 340
356 360 362 358 357 361 359 358 361 362 362 361 361 360 358 357 357 355 353 349 347 350 348 346 344 343 345 344 343 342 343 346 346 347 348 347 347 347 345 345 346 347 347 346 350 351 351 351 351 351 351 349 349 350 350 350 349 350 350 350 351 351 350 350 351 351 350 350 350 349 349 349 350 350 350 350 349 350 350 348 347 348 349 349 348 348 349 349 349 349 349 350 351 345 340 340 340
356 358 361 361 360 362 360 357 360 357 357 363 362 360 359 358 357 353 352 352 349 349 348 345 343 343 344 343 342 341 343 346 346 347 347 347 347 346 345 346 346 346 346 345 349 351 350 350 350 349 350 350 350 351 351 350 350 349 349 350 351 350 350 350 351 350 349 349 349 350 350 349 350 351 350 349 349 349 349 347 347 348 350 349 349 349 349 349 348 349 350 350 350 345 340 338 338
356 357 361 365 360 357 359 358 358 355 356 361 362 360 358 356 355 354 353 353 352 348 347 347 344 344 343 342 342 341 345 346 346 347 347 347 346 346 346 346 347 346 345 344 347 349 350 350 350 349 349 349 351 353 352 350 349 348 349 350 350 350 348 349 350 350 349 349 349 350 350 349 350 351 350 350 350 348 347 348 348 349 350 350 350 351 350 348 348 348 348 348 348 346 342 339 338
356 358 362 364 356 351 356 360 359 355 358 360 360 359 359 357 354 355 354 353 352 347 347 348 346 344 340 340 341 343 346 345 346 347 347 347 347 347 347 346 347 346 344 344 345 347 350 351 349 349 349 350 352 352 351 351 350 348 349 350 351 350 349 349 350 350 349 349 350 350 350 349 349 350 350 350 351 349 348 349 350 350 350 350 349 350 349 348 349 348 347 347 347 346 344 342 339
355 360 363 355 351 353 357 362 358 354 359 361 361 361 360 359 356 356 353 351 350 348 348 346 345 343 339 339 343 345 345 345 347 348 347 348 347 347 347 346 347 347 344 344 345 346 351 352 349 348 348 350 353 352 351 351 351 350 349 350 350 351 350 349 349 349 349 349 349 350 350 350 349 350 351 350 350 350 350 351 351 352 350 349 348 348 348 348 348 348 347 346 345 344 344 342 339
357 363 362 350 354 361 361 362 358 357 361 361 363 361 360 360 358 355 352 352 351 349 348 345 345 341 340 342 343 345 345 346 347 347 348 348 347 347 347 346 348 347 345 344 344 348 352 352 350 349 348 350 351 352 352 350 351 351 349 350 351 350 350 349 349 348 348 348 347 348 350 350 349 349 351 350 350 350 350 351 351 351 350 349 349 348 347 346 347 347 347 346 345 346 349 347 342
359 362 360 354 361 366 363 361 358 358 361 360 362 359 358 360 356 353 354 355 352 350 348 345 344 341 342 343 343 345 344 346 347 347 348 347 347 347 347 347 348 346 346 346 345 349 352 351 351 350 349 351 351 352 353 352 352 353 350 350 350 351 350 349 348 348 348 349 347 347 349 351 350 350 350 349 349 349 349 351 350 350 351 350 349 347 346 346 347 347 347 347 347 351 354 352 347
359 360 362 361 362 364 363 363 362 359 360 360 360 356 355 354 350 352 354 354 351 349 348 345 344 343 342 342 343 344 344 346 346 346 346 346 347 346 346 346 347 346 346 347 346 349 352 351 351 350 350 351 351 352 352 353 352 352 353 351 350 351 349 348 348 348 349 348 348 347 348 350 351 350 350 349 349 350 350 350 350 350 350 348 347 346 346 346 348 348 348 348 348 351 353 349 347
358 360 364 364 360 363 363 364 364 359 360 360 357 355 353 349 348 351 352 351 349 347 348 345 344 344 342 341 342 344 344 346 345 346 345 346 346 344 345 346 346 346 347 347 346 350 352 352 351 351 351 350 350 350 350 351 351 351 352 351 350 350 348 348 347 348 349 348 347 347 347 349 350 351 351 350 350 351 351 351 351 351 350 350 350 350 349 350 352 352 351 349 348 349 349 346 346
360 360 361 362 360 363 364 363 364 359 360 359 356 355 350 349 350 350 349 350 348 345 346 346 344 343 342 340 342 344 344 346 345 345 345 345 345 344 344 345 345 345 347 347 346 350 353 352 352 351 350 350 350 350 350 350 351 351 351 351 351 349 349 349 346 347 348 348 347 346 346 348 350 352 352 351 352 352 352 352 351 352 352 352 352 353 352 352 354 355 354 351 349 348 347 347 345
361 360 358 360 360 364 364 363 364 359 360 360 356 353 349 349 350 349 348 349 346 344 345 345 344 343 342 342 342 342 342 345 345 344 344 344 344 344 344 344 345 345 347 347 346 350 354 352 352 350 350 351 350 350 351 351 352 353 352 353 352 348 349 349 349 349 348 349 348 346 348 350 350 351 352 353 353 353 352 351 351 352 352 351 352 353 352 354 355 355 353 351 348 347 347 347 345
359 359 359 361 361 364 363 361 363 358 360 360 355 351 349 350 351 350 349 347 345 344 345 344 345 345 342 342 340 342 343 344 343 343 344 342 343 343 343 343 345 346 347 347 346 350 354 352 352 352 352 352 351 351 351 352 353 353 353 352 350 348 347 348 350 351 349 349 350 350 350 350 351 351 352 353 353 352 351 351 351 352 352 350 352 353 353 353 354 353 353 352 349 346 346 345 344
360 360 360 362 363 364 361 359 362 359 359 359 354 351 349 351 353 351 347 345 345 344 344 343 343 343 341 341 340 341 343 344 343 344 343 342 343 343 343 344 344 346 347 347 348 350 353 353 353 353 354 353 353 352 352 352 353 353 352 350 350 349 349 349 349 351 351 351 352 352 351 350 351 351 351 353 352 351 350 350 351 351 351 351 352 352 352 352 352 352 353 352 350 348 346 344 344
359 359 359 361 363 364 361 362 364 362 361 359 355 352 352 352 352 352 347 344 346 344 344 343 341 342 340 340 340 341 341 343 344 343 343 342 342 342 343 344 344 346 346 347 348 350 353 353 353 354 355 355 353 353 353 353 354 352 351 350 350 350 351 351 350 349 350 352 353 353 353 351 351 351 352 353 354 353 351 350 350 349 349 351 352 351 351 352 351 352 353 352 351 348 345 345 344
356 357 358 361 363 363 362 363 364 361 362 360 357 357 354 352 352 352 347 343 345 344 344 343 342 342 341 340 340 342 342 342 344 342 343 343 342 343 344 344 345 346 346 347 349 350 352 352 353 354 354 354 353 354 354 354 354 352 350 350 351 351 351 351 351 349 349 352 354 355 354 352 351 352 353 354 354 354 352 350 350 349 349 350 351 351 351 352 352 354 355 354 351 347 345 345 344
355 356 358 360 361 364 363 362 362 360 362 362 359 360 356 352 353 352 346 344 344 344 345 343 343 342 341 340 340 343 343 342 343 342 344 344 343 344 344 345 346 346 347 348 350 350 351 351 352 353 354 354 352 353 354 354 353 352 350 351 351 352 351 350 351 350 350 352 353 354 354 351 351 352 353 353 353 353 352 351 350 350 350 350 351 352 352 352 354 354 355 355 351 347 346 345 344
355 356 360 362 363 364 363 363 361 360 362 363 360 358 357 356 354 351 345 344 344 344 345 343 343 343 341 341 340 341 342 343 343 343 344 344 343 344 344 345 346 347 348 349 349 349 350 351 351 353 353 353 352 352 353 353 352 351 350 351 352 352 351 350 350 350 351 352 352 353 353 352 352 353 352 351 352 352 352 352 350 350 351 352 352 355 355 353 354 353 354 354 350 347 345 344 343
356 357 359 362 363 362 363 362 360 361 360 362 362 349 351 359 354 350 346 343 345 345 345 344 343 343 342 341 341 341 342 343 343 343 344 343 343 344 344 346 346 347 349 349 349 350 351 351 351 353 353 352 352 352 352 352 351 351 351 352 352 351 351 350 349 350 351 350 351 352 352 352 352 352 352 351 351 352 353 353 351 352 352 353 353 354 354 353 353 354 352 351 348 346 345 343 343
359 359 359 360 353 354 363 361 361 364 359 361 361 345 347 360 353 348 346 342 345 345 344 344 343 343 342 341 342 341 342 343 343 343 343 343 344 344 345 346 347 348 349 349 350 351 351 351 352 352 353 352 352 352 352 352 352 351 351 352 352 351 350 349 347 349 350 349 350 351 352 352 352 352 353 352 350 351 353 353 353 353 354 354 354 354 353 352 354 354 351 350 348 345 344 343 344
361 353 350 357 349 352 365 361 361 365 360 361 360 351 352 358 352 348 347 343 344 345 345 344 343 343 343 341 342 341 342 343 344 344 343 344 344 346 346 346 347 348 349 350 351 351 351 352 352 352 352 352 352 353 353 353 353 352 352 352 352 351 349 348 347 348 349 350 350 351 352 352 352 353 353 353 351 350 352 353 354 355 356 355 354 355 354 354 354 354 353 352 350 347 344 343 344
364 353 345 351 349 352 361 360 361 363 361 362 360 359 360 355 351 348 346 345 344 345 345 345 344 343 343 342 342 342 342 343 344 345 344 345 345 346 346 346 347 348 349 351 351 351 351 352 352 351 351 352 353 353 354 354 354 353 352 351 351 350 350 349 348 348 350 351 350 351 352 353 354 354 354 354 353 351 350 352 353 355 357 357 356 357 354 353 353 354 356 355 352 351 346 343 344
353 351 345 350 351 351 355 360 362 360 362 364 361 363 362 354 351 348 347 346 344 345 344 344 344 344 344 342 342 343 343 343 344 345 345 345 345 346 347 347 347 348 350 351 352 352 351 351 352 352 352 352 353 354 354 354 354 354 353 351 351 350 350 350 350 350 351 351 352 352 354 355 355 355 355 355 354 350 350 352 352 355 358 358 359 358 355 355 354 354 357 356 355 354 350 345 345
344 343 339 345 352 351 354 358 361 360 362 365 362 364 364 358 351 348 348 346 346 346 344 344 344 344 344 343 343 343 343 343 344 346 345 345 346 346 347 347 348 349 350 352 353 352 351 352 353 353 353 353 354 354 354 354 354 354 353 351 352 352 350 350 351 351 351 353 353 354 357 357 356 358 358 358 356 352 352 353 355 357 358 359 360 357 355 357 358 358 358 358 357 355 352 347 346
348 349 344 345 348 350 358 361 360 361 362 366 365 364 368 363 352 351 348 346 347 347 345 345 345 345 345 343 344 344 344 344 344 345 345 345 346 346 347 347 348 349 351 353 354 354 354 354 355 354 355 354 354 356 355 355 355 354 352 351 352 353 352 351 351 351 352 353 353 355 358 358 358 359 360 361 360 356 355 355 357 359 358 359 360 358 357 357 360 362 359 360 359 353 350 346 346
353 356 352 350 349 350 361 364 362 363 361 364 365 364 368 363 356 354 349 348 349 347 346 346 346 347 346 345 345 345 345 344 346 347 346 346 346 347 348 347 348 350 352 354 354 356 355 355 356 356 355 356 356 357 356 356 356 354 353 350 350 352 352 351 352 352 352 354 354 356 358 358 359 359 360 362 361 360 359 358 359 359 357 359 361 360 358 357 359 361 359 360 359 354 350 345 346
352 355 351 349 352 355 362 363 362 365 363 363 364 363 366 364 359 358 353 353 350 348 347 346 348 348 346 346 347 346 345 345 347 347 347 347 347 347 348 348 349 351 352 353 354 356 355 354 356 357 357 357 357 357 357 357 356 355 352 350 350 351 351 352 353 352 352 355 356 357 358 358 359 359 360 362 362 361 361 359 359 360 359 359 360 359 358 358 361 362 360 359 357 353 349 347 348
342 353 351 349 353 356 358 362 362 363 364 364 364 362 363 364 361 359 356 355 352 349 348 347 349 349 346 346 348 347 346 347 346 345 347 348 348 349 349 349 350 351 352 352 354 356 355 354 357 358 358 358 358 357 357 356 356 355 353 352 351 351 351 352 353 352 352 354 355 357 358 359 359 358 358 359 361 362 361 359 359 359 359 359 359 359 358 360 362 363 360 359 358 353 346 348 349
339 351 347 348 354 349 348 357 362 363 363 364 365 363 364 366 363 362 357 353 354 352 348 348 349 348 346 345 347 348 346 348 346 345 346 348 350 350 350 351 350 351 352 351 353 355 355 355 357 358 358 358 359 358 358 357 357 358 357 355 353 353 353 353 354 354 353 353 354 357 359 359 358 358 357 357 358 361 361 360 359 358 359 359 360 360 359 360 361 362 361 361 359 353 346 347 348
338 350 343 345 352 349 349 356 362 361 359 363 363 357 362 368 365 365 361 353 353 353 349 348 349 348 346 345 347 347 347 349 347 345 345 348 351 351 351 352 351 351 352 351 352 354 354 356 356 358 359 360 359 360 361 359 358 358 358 357 357 355 355 355 355 354 355 354 354 355 357 358 358 358 357 357 357 359 360 360 358 358 358 359 359 359 359 360 360 359 361 361 358 355 351 346 347
330 341 341 345 352 352 355 358 358 352 350 359 357 347 353 365 365 365 362 357 355 352 350 349 349 349 346 346 348 347 347 348 348 346 345 348 350 351 352 351 351 351 351 351 351 352 354 355 357 357 359 360 359 362 363 360 359 359 357 356 356 354 354 354 353 353 354 354 353 354 356 356 358 358 357 357 357 357 360 359 358 358 358 358 360 360 359 359 359 358 360 361 359 358 356 348 346
322 332 339 348 354 354 354 355 350 342 343 356 356 348 351 359 361 365 362 359 358 353 352 350 349 350 346 346 348 346 346 347 347 346 345 348 349 350 351 350 351 351 351 351 351 352 353 355 358 357 358 360 359 362 363 361 362 360 356 355 354 353 354 354 353 352 353 354 353 354 356 357 357 357 356 358 358 357 359 359 358 358 357 358 359 360 358 356 358 359 360 361 359 360 360 354 350
321 331 338 345 352 354 353 353 350 347 350 358 361 356 354 353 357 364 361 358 360 356 352 352 351 349 347 346 346 346 346 346 346 345 345 347 348 348 350 350 350 350 351 352 351 352 353 356 359 356 356 359 358 360 362 363 364 362 359 355 354 354 353 354 355 354 354 355 354 354 355 356 357 357 357 357 358 357 358 358 358 358 358 358 358 360 358 356 357 359 360 360 360 360 360 360 357
327 333 335 342 352 355 356 354 349 349 349 349 354 354 350 352 359 367 366 359 360 360 355 353 352 350 348 345 345 345 345 346 344 344 346 347 348 348 348 348 348 348 349 352 352 353 355 358 359 356 355 357 359 359 359 362 364 362 361 357 355 355 354 354 355 356 357 357 357 356 356 356 357 358 358 357 358 358 357 358 358 358 358 358 357 358 358 358 359 359 360 363 363 361 358 359 358
331 333 335 342 355 355 354 350 346 347 344 339 345 346 345 351 358 362 365 362 360 360 357 353 351 350 348 345 345 344 344 346 345 344 347 348 347 347 347 347 347 347 349 351 352 354 356 359 358 357 357 357 360 361 359 362 363 362 362 360 357 357 356 355 355 357 359 360 360 359 359 358 356 357 358 358 358 358 357 357 357 357 358 356 357 359 358 358 358 358 361 363 363 361 359 357 356
330 335 337 339 352 356 351 349 347 346 345 339 340 343 344 351 356 356 359 361 360 360 358 355 353 350 349 346 344 343 344 345 345 345 347 347 348 346 346 346 346 348 350 350 352 354 356 358 358 358 359 358 359 361 361 361 361 361 363 363 361 359 358 357 358 359 361 363 361 360 361 360 357 356 357 357 358 358 357 357 357 356 357 356 357 359 358 355 354 357 359 360 360 362 360 358 356
330 336 339 333 336 345 348 350 347 343 343 341 341 344 344 348 356 361 361 360 358 361 360 357 354 352 348 346 344 344 344 345 345 346 346 346 348 347 345 346 346 348 351 350 351 354 355 358 357 358 359 359 359 360 360 361 360 361 363 364 364 362 359 358 359 361 362 363 361 359 361 361 359 358 357 357 357 357 358 357 357 357 357 358 357 358 358 355 355 357 358 358 359 359 358 358 357
331 334 332 328 326 332 339 341 339 337 338 341 345 348 346 346 353 363 367 363 358 360 359 355 353 351 348 345 345 345 344 344 344 345 347 346 347 347 345 347 347 348 351 350 350 352 354 356 357 358 359 359 359 358 359 360 360 361 362 363 365 365 362 360 360 361 361 360 359 360 361 362 362 360 358 358 356 356 358 358 358 358 358 358 358 359 360 359 358 358 358 359 359 358 357 359 357
330 328 326 326 327 330 333 332 332 334 333 338 347 348 344 346 352 358 362 360 357 358 359 356 352 350 349 346 345 346 346 346 346 344 345 346 346 347 347 347 348 348 350 351 350 351 353 355 357 359 359 359 359 358 358 360 361 360 360 362 364 364 363 361 359 359 359 359 360 360 359 359 361 360 359 358 357 357 358 359 359 359 359 359 360 361 360 360 360 359 358 359 359 359 359 359 358
330 332 331 326 325 327 329 328 330 331 331 338 344 342 339 343 352 359 355 355 353 355 359 357 354 351 349 347 345 346 346 346 347 345 344 346 346 346 347 348 349 349 349 350 350 351 353 355 357 358 359 359 360 358 357 358 360 360 360 361 361 361 360 360 359 359 359 359 360 360 359 358 358 357 359 360 360 359 360 360 360 360 360 359 360 360 359 359 360 359 359 360 359 360 360 359 359
329 334 330 324 326 328 323 324 330 329 333 341 339 339 346 348 353 358 355 357 358 356 357 356 356 354 348 347 346 345 345 345 345 346 345 346 346 347 347 348 349 350 349 349 350 351 352 354 356 357 359 358 359 358 357 357 358 358 358 360 361 360 359 359 359 360 361 360 359 359 359 359 357 357 359 361 361 361 361 362 361 360 361 359 359 359 359 361 362 360 362 362 359 360 361 360 360
327 327 323 328 335 332 321 321 329 326 330 338 334 335 345 347 351 359 356 357 361 359 355 351 355 356 351 348 347 345 346 346 345 346 345 346 347 347 348 349 349 349 349 348 349 351 352 354 355 356 357 357 357 358 357 356 357 357 357 358 359 360 359 358 358 358 359 360 359 359 358 358 358 357 358 358 360 361 362 361 360 360 360 359 360 359 359 364 364 361 363 364 361 362 365 364 361
326 322 325 333 336 334 326 322 325 324 325 330 328 332 340 338 342 356 358 357 360 360 355 350 353 357 355 349 347 346 345 346 346 346 345 346 347 348 349 349 349 349 348 349 350 351 352 353 353 354 355 356 356 356 356 356 357 356 356 357 357 358 358 357 356 355 357 358 359 359 357 357 358 357 357 357 358 360 361 361 361 361 360 359 360 359 359 363 363 360 363 364 362 364 366 365 363
326 325 329 330 325 324 324 321 322 324 326 329 327 330 338 336 338 349 355 357 358 359 357 352 351 355 357 351 347 347 346 345 346 345 345 346 347 348 348 348 348 348 348 349 350 351 352 352 351 350 352 354 354 353 354 355 355 355 355 355 356 356 357 357 355 355 356 356 358 358 356 357 357 357 358 358 358 359 360 360 361 362 360 360 360 360 360 363 361 359 362 362 360 362 362 362 364
323 326 328 330 326 324 323 321 320 320 322 327 329 328 334 342 348 351 354 356 356 356 358 355 351 351 355 355 351 347 347 347 346 345 345 346 347 347 347 348 348 348 348 349 350 351 351 351 350 349 349 351 352 352 352 353 354 353 354 354 355 355 356 356 356 356 356 356 356 356 355 356 357 356 357 358 357 358 358 358 358 358 359 359 359 359 360 361 360 360 362 361 360 365 364 362 363
318 318 320 324 327 325 326 323 319 318 318 322 329 329 332 348 360 355 355 356 354 355 358 358 355 351 353 357 356 350 349 348 346 345 345 345 346 347 347 348 348 348 347 348 350 351 352 352 350 349 348 349 350 350 351 352 352 352 352 353 354 354 354 356 357 357 357 356 356 356 355 356 356 356 357 357 356 358 358 357 357 356 357 358 359 359 361 362 362 362 362 360 362 366 365 362 363
320 317 316 322 325 321 322 323 320 318 317 319 325 326 331 349 360 355 354 355 354 354 355 356 357 355 354 356 357 354 353 351 347 344 344 346 347 347 348 349 349 349 349 348 349 351 351 352 351 350 349 348 349 349 350 352 352 351 351 352 352 353 353 353 355 356 356 356 357 356 356 356 356 356 357 356 356 357 357 357 357 356 357 360 361 361 361 361 362 363 362 359 360 362 362 361 362
Wind_Speed
10 9 6 7 7 5 4 2 1 0 2 1 4 4 7 9 11 12 12 11 9 9 8 10 9 6 6 10 12 12 12 9 6 4 7 11 18 16 13 16 15 15 15 15 14 14 12 12 13 13 11 10 11 11 10 9 9 9 10 10 10 11 10 10 10 10 10 10 10 11 11 12 14 15 15 15 15 15 15 14 14 14 14 14 16 18 18 18 18 18 19 18 18 18 18 18 18
10 9 6 5 5 5 1 1 1 0 2 2 4 5 8 9 11 12 11 10 9 11 10 10 10 7 9 12 12 13 14 14 13 10 12 18 20 15 15 16 15 15 15 15 14 13 12 12 13 13 12 11 11 10 9 9 10 10 10 10 10 11 11 10 10 10 11 11 11 10 10 11 13 14 15 15 16 16 15 14 14 14 15 14 14 16 18 18 18 18 18 17 17 18 18 18 17
9 7 6 4 4 5 0 1 2 1 2 3 4 6 9 10 12 12 12 13 13 13 12 11 10 7 9 12 11 12 12 14 18 15 13 19 17 14 17 15 15 15 14 15 14 14 13 12 13 12 12 12 11 8 8 9 9 10 10 10 10 11 12 11 10 10 11 11 11 11 11 12 13 14 14 15 16 16 15 14 14 15 16 16 15 14 15 16 17 17 17 17 17 18 17 17 17
7 5 5 3 4 4 2 2 1 1 2 4 6 7 10 11 14 14 14 15 14 13 11 12 9 7 9 13 13 12 13 14 18 16 11 15 16 17 18 15 15 14 13 14 14 14 13 13 13 13 12 11 9 7 7 9 9 9 9 10 11 12 12 11 10 10 11 11 11 11 12 13 13 13 14 15 15 15 15 15 15 16 17 17 17 14 12 12 14 17 17 17 17 17 16 17 17
8 6 4 4 3 1 2 1 1 1 1 3 5 9 11 13 15 15 15 14 13 12 11 10 10 10 10 11 10 9 12 14 18 17 14 17 19 19 18 16 15 14 13 13 14 14 14 13 13 12 11 9 8 7 8 9 8 10 9 9 11 12 11 11 10 10 9 10 11 12 12 12 12 12 13 14 14 15 16 16 15 15 17 17 17 15 11 10 12 15 16 16 16 16 16 16 16
8 5 5 4 1 1 2 1 0 1 1 0 5 10 13 14 14 16 16 14 12 12 11 10 12 13 11 11 10 10 13 14 15 16 17 20 20 19 18 16 14 14 13 13 14 15 15 14 14 12 10 8 8 9 8 9 9 10 10 9 11 11 11 11 11 11 10 10 10 12 13 11 12 12 12 12 14 16 16 16 16 15 16 16 16 15 12 9 11 13 14 15 16 15 15 15 16
5 4 5 3 1 2 2 1 1 1 1 3 8 11 14 14 14 16 16 14 11 10 11 11 13 13 11 10 11 13 15 15 14 17 20 22 20 19 17 15 15 15 13 12 14 16 16 15 14 11 10 10 10 10 9 9 10 10 10 10 11 11 11 11 12 12 11 11 11 12 12 11 12 13 13 12 14 16 16 17 17 15 15 16 16 16 13 10 12 13 13 14 14 14 14 14 15
2 3 2 2 3 2 2 2 3 1 4 5 10 12 14 15 14 15 14 13 9 10 12 13 13 12 14 13 11 13 16 17 18 21 23 22 20 18 16 15 15 14 13 13 15 16 16 15 13 10 11 12 10 10 9 9 10 10 10 11 11 12 11 11 12 12 12 12 12 12 12 11 12 14 13 12 15 16 15 16 17 16 15 16 17 17 14 11 14 14 13 14 13 14 14 15 15
2 4 1 3 3 1 1 2 2 2 7 9 12 12 13 14 13 14 13 12 10 12 13 13 12 12 16 16 13 12 15 19 23 24 22 21 19 17 15 15 14 14 14 14 15 17 17 14 12 10 11 13 11 10 10 10 11 11 11 11 12 12 12 11 12 13 13 13 13 13 12 12 13 14 13 13 16 16 15 16 18 17 14 15 17 18 15 13 14 15 14 13 13 14 15 14 14
1 4 2 3 3 2 2 1 3 6 10 10 12 12 11 12 12 12 13 13 12 13 13 13 14 15 17 16 12 11 16 22 24 22 21 19 17 15 15 14 14 14 14 16 16 18 19 14 12 11 12 12 11 11 10 10 11 11 11 12 12 11 12 11 12 13 14 14 13 14 13 13 13 13 14 14 15 16 15 17 18 18 16 14 16 18 16 15 15 16 16 14 13 14 14 14 14
1 3 2 3 4 3 3 3 4 8 9 9 11 11 10 11 11 10 12 14 12 13 14 13 14 17 18 14 10 13 20 22 22 21 20 18 16 15 14 14 14 12 13 16 17 19 19 14 13 13 13 12 11 11 11 11 12 13 12 12 12 11 11 11 12 14 15 15 14 14 14 14 13 13 14 15 16 16 16 17 19 19 18 16 16 17 17 16 16 16 17 15 13 12 12 12 13
3 3 1 3 4 2 3 5 7 8 8 10 9 9 9 10 10 10 11 13 13 13 14 13 14 16 16 13 9 16 21 19 20 21 19 17 15 15 14 14 13 12 12 14 19 20 17 14 13 14 13 12 11 11 12 12 12 13 13 13 12 12 11 11 12 14 16 16 15 15 15 16 14 14 15 16 16 17 17 18 20 19 19 19 17 17 17 17 16 15 16 16 13 10 11 11 12
4 1 1 3 2 1 3 4 7 9 7 9 9 9 10 9 11 11 10 13 14 12 14 14 15 15 14 13 11 15 18 18 20 20 19 16 15 15 14 14 13 12 11 13 18 17 16 16 14 14 14 13 12 12 12 13 13 13 14 14 13 12 12 12 12 14 16 17 16 15 15 15 14 15 16 16 17 18 17 17 19 19 18 19 18 18 18 18 17 15 15 16 12 10 11 11 12
3 2 3 2 1 2 3 3 7 8 6 8 9 10 10 8 10 11 10 13 13 12 13 14 14 14 14 13 11 11 15 19 20 18 18 16 15 15 14 14 13 11 11 12 14 16 17 16 15 16 15 13 14 13 13 13 13 14 15 15 14 13 13 13 14 14 16 17 16 16 15 15 14 15 17 17 17 18 17 17 19 18 17 18 18 17 17 18 18 15 15 15 12 10 11 11 12
2 3 3 2 1 3 3 4 7 7 7 10 10 10 10 8 10 11 10 11 12 12 12 13 11 11 14 14 12 12 17 21 19 18 17 16 15 14 14 13 12 10 10 10 12 17 19 16 16 17 16 14 14 12 12 13 13 15 16 15 15 14 14 15 15 15 16 17 17 17 16 16 15 15 16 17 17 18 17 17 17 17 17 17 18 17 16 16 16 15 14 15 13 10 11 11 11
2 3 2 2 4 4 4 5 6 7 8 12 11 11 11 10 10 10 9 9 11 12 10 11 8 8 15 15 16 20 23 22 19 18 17 16 15 14 13 12 11 10 9 9 10 14 16 18 18 16 16 15 13 11 12 14 14 17 17 16 16 16 16 16 16 17 17 17 17 17 18 17 17 16 15 16 17 17 17 17 16 16 16 17 18 18 16 15 14 14 14 14 12 11 10 10 10
1 3 5 3 5 4 3 6 6 7 10 14 13 12 13 12 9 8 9 9 12 12 9 9 8 10 16 17 23 26 25 22 19 18 17 16 15 14 13 12 11 9 8 8 9 12 13 19 20 14 16 16 13 11 12 15 16 17 17 17 17 17 17 17 16 17 17 17 17 17 19 18 17 17 15 14 16 16 17 17 16 15 15 16 17 17 16 15 14 14 14 13 12 11 11 10 10
1 3 4 2 2 2 2 5 6 9 13 14 14 13 14 14 11 9 9 11 12 12 10 11 11 14 19 24 28 26 24 23 19 18 17 15 14 13 12 11 10 9 9 8 8 12 11 16 20 15 16 17 13 12 12 14 16 16 16 17 15 16 17 17 17 17 18 18 17 17 19 19 17 17 16 14 15 15 15 15 15 15 15 14 14 15 15 15 15 14 14 12 11 11 10 8 8
4 3 3 2 1 2 3 4 6 10 15 15 14 13 12 13 13 11 11 13 12 13 12 13 16 19 22 27 27 25 24 22 19 18 17 15 14 13 12 11 10 9 9 8 9 11 9 13 19 16 14 15 12 11 11 12 14 14 15 16 15 15 15 16 17 17 18 18 18 17 18 20 16 16 16 15 15 15 14 14 14 14 14 13 13 13 14 14 14 14 13 11 9 8 7 5 6
2 2 2 1 2 4 5 6 7 9 15 16 14 12 12 13 13 10 12 15 13 13 14 15 19 21 22 23 25 25 23 20 19 18 16 15 14 13 12 11 10 8 8 8 9 10 10 13 15 14 13 14 12 12 12 10 12 12 13 15 16 15 14 15 15 15 16 16 16 16 17 18 16 16 16 15 16 15 14 14 13 13 13 13 14 13 13 14 14 12 10 9 9 6 5 5 5
2 1 1 1 4 3 2 4 9 12 13 15 14 13 13 13 10 10 13 13 11 12 14 17 21 23 23 22 23 23 21 19 18 16 16 15 14 13 12 11 10 9 8 8 9 9 10 12 13 13 12 11 12 13 12 10 11 11 11 15 16 17 15 13 14 16 17 15 14 15 16 17 17 16 15 14 14 14 14 12 11 11 11 11 11 10 10 11 10 8 6 6 7 5 5 5 5
4 0 3 2 2 2 1 1 9 13 12 14 14 13 13 12 11 11 12 10 9 12 14 18 21 23 24 23 22 21 20 19 18 17 16 15 14 13 12 12 11 10 8 8 10 10 9 11 12 13 10 7 10 12 11 11 10 8 9 12 15 19 17 14 14 15 15 16 15 14 15 16 15 13 12 12 12 13 12 11 10 9 8 9 9 8 8 7 6 4 2 4 5 6 6 6 5
6 3 4 3 0 2 2 1 7 12 13 13 12 12 13 14 12 10 9 8 11 14 17 19 20 22 25 24 22 19 18 17 17 17 16 16 14 13 13 12 11 10 8 8 10 10 10 11 11 12 10 6 9 10 9 11 10 7 8 8 11 17 19 18 17 13 11 14 14 14 14 14 13 12 12 11 10 11 11 11 10 10 9 10 9 7 6 6 4 3 3 4 5 7 7 6 6
7 2 4 4 3 3 1 2 7 11 13 12 11 12 13 14 12 9 9 12 14 16 19 20 21 23 24 22 20 18 17 17 17 17 16 15 13 12 12 11 11 10 9 9 10 11 10 11 11 12 11 8 8 8 8 10 9 8 8 8 10 14 18 20 20 16 11 11 12 12 13 12 11 11 11 11 10 11 12 11 11 10 9 9 9 7 5 4 4 4 5 4 5 6 7 7 6
5 1 3 4 4 4 4 4 7 10 12 11 12 12 13 13 11 10 12 15 16 18 19 20 21 21 20 19 19 18 16 16 17 16 15 14 13 13 11 11 11 10 10 9 10 11 11 11 11 11 12 10 9 8 8 8 8 9 9 10 10 11 14 17 19 19 14 11 10 10 11 11 10 10 11 10 11 12 12 12 10 9 8 8 8 7 5 4 5 5 4 4 4 4 5 6 6
6 4 2 3 5 5 3 1 4 5 7 10 14 13 12 13 11 11 13 16 17 19 20 20 21 20 19 18 18 17 16 16 16 16 15 14 14 12 11 11 10 10 11 11 10 10 11 11 11 12 11 10 10 9 8 8 8 9 10 10 10 11 12 13 14 17 16 14 11 8 8 8 9 10 10 9 10 10 11 12 10 9 8 7 7 6 5 4 5 4 4 4 4 4 4 5 5
9 7 5 4 5 5 2 1 2 2 3 9 14 13 14 13 9 9 13 16 17 19 20 20 20 19 18 17 17 16 16 17 16 15 14 14 13 12 11 11 10 11 10 11 11 10 11 11 11 11 11 9 9 9 9 9 9 10 10 10 10 11 11 11 11 13 14 13 11 9 7 7 9 9 9 9 9 9 9 10 10 9 8 7 6 6 5 4 4 3 4 4 4 4 4 5 5
9 7 9 7 5 5 2 2 4 4 2 8 12 13 13 12 8 10 15 17 17 19 21 20 19 17 18 18 16 14 15 16 16 14 14 13 12 11 11 11 11 11 11 11 11 11 11 11 11 11 10 9 9 9 9 10 10 10 10 10 10 10 10 10 10 11 12 13 12 10 8 9 9 9 9 9 9 8 9 9 9 8 7 7 6 6 5 4 4 4 4 4 3 3 3 4 4
9 5 6 8 6 6 4 3 5 3 3 3 9 12 11 10 10 14 16 17 18 19 20 19 18 16 17 17 14 12 14 16 15 14 13 13 12 12 11 11 11 11 11 11 11 12 12 11 12 11 10 10 9 10 9 10 10 10 10 10 10 10 9 9 10 11 11 11 11 10 10 10 10 9 9 9 8 8 8 8 8 8 7 6 6 5 4 3 3 4 3 2 2 2 3 4 4
8 3 3 6 6 6 5 4 6 4 3 6 4 8 9 10 14 16 16 17 18 19 19 18 17 16 15 15 13 13 14 15 14 14 14 12 12 12 12 12 11 11 12 12 12 12 12 11 11 11 11 10 9 9 9 10 10 10 11 11 10 9 9 9 10 11 11 11 11 11 10 10 9 9 9 8 8 8 8 8 8 7 6 6 6 4 3 3 3 2 2 2 2 2 2 2 3
5 1 1 4 4 6 6 4 6 4 1 5 5 4 8 12 16 16 16 18 18 18 19 18 16 15 15 14 14 13 14 14 15 15 14 13 12 12 12 12 11 12 12 12 13 12 12 12 11 11 11 11 10 9 9 9 9 10 10 11 10 9 9 10 11 11 11 11 10 10 9 9 9 8 7 7 7 8 8 7 7 7 6 5 4 3 2 3 2 2 2 2 2 2 2 2 3
3 2 2 4 3 7 6 4 7 5 1 2 3 2 8 12 15 16 15 17 18 18 18 17 17 17 16 14 13 13 14 15 16 16 15 14 13 12 12 13 12 12 12 13 13 13 12 12 12 12 12 11 11 10 9 9 9 9 10 10 10 9 10 10 11 11 11 11 10 9 9 8 8 7 6 5 6 7 7 7 6 6 4 4 3 2 1 2 2 2 2 1 1 1 1 3 4
3 4 3 4 5 7 7 5 8 7 3 4 2 1 5 11 15 16 16 17 18 18 17 17 17 17 16 14 13 13 13 15 15 16 16 14 13 13 13 13 12 12 13 13 13 13 13 12 12 13 13 12 12 11 10 9 9 9 10 10 10 10 10 10 10 11 11 11 10 10 9 8 7 6 6 4 4 5 7 6 6 6 4 3 3 2 2 2 2 2 2 2 1 1 1 2 4
3 6 3 5 6 7 7 6 8 8 6 7 6 3 3 9 16 16 17 18 17 18 18 18 16 15 15 13 14 13 13 13 13 15 17 15 14 14 13 13 13 12 13 14 13 13 13 12 13 13 14 13 12 11 11 9 9 9 9 10 10 9 9 9 10 10 10 10 10 10 9 8 7 6 6 4 3 5 6 6 6 5 3 3 2 2 2 2 2 2 2 1 1 2 2 2 2
3 4 3 4 6 7 9 8 8 9 7 7 8 5 4 8 15 15 16 17 16 17 17 17 16 15 14 14 14 14 14 13 13 16 17 15 15 15 14 13 13 13 13 14 13 13 13 12 13 14 13 14 13 12 11 10 10 9 9 10 9 8 8 9 9 9 10 10 10 10 8 7 7 6 6 4 3 5 6 6 6 4 4 3 2 2 3 2 2 2 2 1 1 1 1 2 2
4 3 5 3 6 6 9 9 10 12 8 5 7 4 2 8 14 15 16 16 15 17 17 15 15 15 14 13 13 13 14 13 15 18 17 16 15 15 15 14 14 13 13 14 14 13 13 13 14 13 13 13 13 12 11 11 10 9 9 10 9 8 8 9 8 9 9 9 10 10 8 7 7 6 6 4 3 4 5 6 5 4 4 3 1 2 3 3 2 2 1 1 1 1 1 2 2
8 6 6 6 7 5 8 9 9 10 8 6 7 5 2 7 11 14 15 15 15 17 17 15 14 14 13 13 14 14 13 13 16 19 18 17 16 16 15 15 14 14 14 14 14 14 14 14 14 14 13 13 13 12 11 10 10 10 10 10 10 9 9 9 8 8 9 10 10 9 8 7 7 6 5 4 4 4 5 5 5 4 4 3 1 1 2 2 1 1 1 1 1 1 1 3 3
5 8 5 6 6 4 7 8 9 8 6 5 7 8 5 7 8 12 15 15 15 16 17 17 16 15 13 13 15 14 13 13 16 18 18 18 17 16 16 15 15 15 15 15 14 14 14 14 15 14 13 13 12 11 10 9 9 9 9 9 10 10 9 9 8 8 10 10 10 9 8 7 7 6 5 4 5 4 4 5 5 4 4 3 2 2 2 2 1 1 1 1 2 1 2 5 4
5 5 5 4 4 5 5 7 9 8 3 4 8 9 6 4 8 11 15 14 13 15 16 16 17 15 14 14 14 14 14 14 15 16 18 19 18 17 16 15 16 15 16 15 14 15 15 14 14 13 13 12 11 11 10 9 8 7 7 8 9 10 10 9 8 8 10 11 10 9 8 7 7 6 6 6 5 4 4 5 5 4 4 4 3 2 2 1 1 1 1 2 3 1 4 6 3
4 6 5 4 6 4 2 6 10 8 4 5 8 6 2 1 7 10 13 14 12 14 15 15 15 14 15 15 14 14 15 15 15 16 17 19 19 18 16 16 16 16 16 16 15 15 15 14 14 13 13 12 11 11 10 9 9 6 6 6 7 8 9 8 8 8 9 11 11 9 8 8 7 7 7 6 6 5 5 4 5 5 4 4 3 2 2 2 1 1 2 2 3 3 4 7 4
4 8 5 5 8 4 1 7 10 8 6 8 9 4 1 1 6 8 8 11 13 14 15 15 15 14 15 15 15 15 15 15 16 16 16 18 18 18 17 17 17 16 16 16 16 15 15 15 15 14 13 12 12 11 10 10 10 8 7 7 7 8 9 9 9 9 9 10 10 10 9 9 8 7 7 7 6 6 5 4 5 5 5 4 3 3 2 2 2 2 2 2 2 2 2 6 6
5 8 5 7 10 5 6 11 10 7 6 10 10 5 3 3 7 7 6 7 12 14 15 16 15 15 14 14 15 15 14 14 15 15 15 17 18 17 17 17 17 17 16 16 16 15 15 15 15 15 13 13 13 12 11 11 10 9 9 9 9 9 9 9 9 10 10 10 10 10 10 10 9 8 8 7 6 6 5 5 5 5 5 4 3 2 3 3 2 3 1 2 3 4 4 3 5
5 7 6 12 14 10 11 13 8 4 4 8 9 4 3 4 7 8 6 6 10 14 16 16 15 15 14 13 14 14 14 14 14 14 16 17 19 18 17 17 17 17 16 16 16 15 15 16 16 15 14 13 13 13 12 10 9 9 10 10 9 9 9 9 8 8 9 9 9 10 10 10 9 8 8 7 7 7 6 5 5 5 5 5 4 3 4 4 3 3 2 2 3 4 4 3 4
2 3 5 11 13 11 12 11 5 2 4 6 6 1 3 3 5 8 10 9 11 14 17 16 15 15 15 15 15 15 15 14 14 14 15 17 19 19 18 18 17 17 17 17 16 16 16 16 16 15 14 13 14 14 13 10 9 9 9 8 9 9 9 9 8 8 8 8 9 10 10 10 9 8 8 7 7 7 6 6 6 5 5 5 5 4 3 3 4 3 2 2 2 3 4 4 4
1 2 3 7 11 8 8 7 4 3 4 5 6 4 2 2 3 6 10 11 12 14 16 17 16 16 16 16 16 17 16 15 15 15 15 17 19 19 18 18 17 18 18 17 17 17 16 16 16 15 14 13 14 15 14 10 9 9 8 8 8 7 9 10 9 8 8 8 8 8 8 9 9 8 7 8 8 7 7 6 6 5 5 5 5 5 4 3 4 3 2 2 2 2 3 3 4
2 2 4 7 12 10 6 4 4 2 3 4 10 11 5 2 4 6 8 10 10 11 14 15 16 17 16 16 17 17 15 14 14 15 15 17 19 19 19 18 17 17 17 17 17 17 17 17 17 16 14 14 14 14 14 11 9 9 7 7 8 7 8 10 9 9 8 8 8 8 7 7 8 9 8 8 8 8 7 7 6 6 5 6 5 4 4 4 4 4 3 1 1 2 1 2 2
2 2 5 4 9 11 6 2 4 2 2 1 9 13 8 2 4 8 8 9 11 10 12 15 16 17 17 16 16 16 15 14 13 14 16 18 19 19 19 19 18 17 17 17 17 17 18 17 17 16 14 14 14 14 13 12 10 9 7 7 8 7 8 9 9 9 8 8 8 8 7 7 8 8 8 9 9 8 8 7 6 6 6 5 5 3 4 5 5 5 4 2 2 1 0 1 0
4 4 4 4 6 7 5 2 2 3 1 1 8 13 10 4 4 7 8 11 15 12 11 15 17 17 17 16 16 16 14 14 14 13 15 17 17 18 19 19 18 18 17 17 18 17 18 18 18 17 15 14 14 15 14 12 11 9 8 8 8 8 8 8 8 8 9 8 8 8 8 7 7 7 8 8 9 9 8 7 7 6 6 5 5 4 4 4 4 5 4 3 3 2 1 1 1
7 4 5 6 5 5 3 4 4 3 2 3 8 10 8 4 4 8 11 12 15 13 11 15 18 18 18 16 16 15 14 14 14 13 14 14 15 17 18 19 19 18 17 17 17 18 17 18 18 18 16 15 14 15 14 12 11 10 9 9 8 8 8 8 7 8 8 8 8 8 8 8 7 8 8 8 9 9 9 8 7 6 6 6 5 4 3 3 3 3 4 4 3 3 2 1 1
9 6 6 6 5 4 5 4 4 4 3 6 10 10 6 2 3 8 15 15 15 15 11 11 17 19 18 17 16 15 14 14 13 14 14 13 15 18 18 18 19 18 18 17 16 17 17 17 18 18 17 16 14 14 14 13 12 11 10 9 9 8 8 8 8 8 8 8 8 8 8 8 8 8 8 8 8 9 8 7 7 7 6 6 5 4 4 4 3 3 3 3 3 2 2 2 2
10 8 6 7 5 4 4 3 2 2 4 4 7 7 2 1 3 6 11 15 15 13 9 6 11 15 15 15 16 16 15 14 13 14 15 15 18 19 18 18 18 18 19 17 16 16 16 17 18 18 18 17 16 15 14 14 12 11 11 10 9 9 9 8 8 7 8 8 8 8 8 8 8 8 8 8 7 8 7 7 7 7 6 7 6 5 5 5 5 4 3 3 2 2 2 3 3
8 8 7 7 6 5 5 3 2 2 3 2 2 3 1 2 5 5 8 12 10 8 8 7 8 10 13 15 15 15 15 14 14 14 15 17 20 20 18 18 18 18 19 18 17 16 16 16 18 18 18 18 17 16 15 14 13 12 12 11 10 10 9 9 8 8 8 8 8 8 8 7 8 8 8 8 8 8 7 7 7 7 7 7 7 6 6 5 5 5 3 3 3 3 2 3 4
4 8 9 7 7 6 6 3 3 3 3 3 5 4 5 4 6 7 9 11 9 7 9 10 6 7 13 15 14 14 14 14 14 14 14 16 20 20 19 18 19 19 19 19 18 17 16 17 17 18 18 18 18 17 16 15 14 13 13 12 11 11 11 10 10 9 9 9 8 8 8 8 8 8 9 9 10 9 8 8 7 7 8 7 7 7 7 5 5 5 4 4 4 3 2 2 4
4 6 7 8 8 6 4 4 4 5 3 3 5 5 6 5 4 8 11 13 13 12 12 13 10 8 11 14 14 15 15 15 15 15 15 16 19 20 20 20 19 19 19 19 19 18 17 17 17 18 18 18 18 18 17 16 15 14 14 14 13 12 12 11 10 10 9 9 9 9 9 9 9 8 8 9 10 10 9 9 8 8 8 8 8 8 7 6 5 5 5 5 5 3 3 4 4
11 7 4 6 8 6 6 5 5 6 3 1 4 6 6 3 3 9 12 13 15 16 15 16 15 13 10 12 15 16 16 16 15 15 14 15 19 21 20 20 20 19 18 18 19 18 18 17 17 18 18 18 18 18 17 16 16 15 14 15 14 13 12 12 10 9 9 9 9 9 9 9 9 9 8 8 10 10 10 10 9 9 9 9 8 8 8 7 6 6 6 6 6 5 5 5 5
14 9 5 6 6 6 6 5 5 5 2 2 3 4 2 2 4 10 12 13 15 15 15 15 17 16 13 10 13 16 15 15 15 15 14 15 19 22 22 20 19 19 18 18 19 19 18 18 17 17 18 18 17 17 17 17 16 15 14 15 15 14 13 12 10 10 10 9 9 9 10 10 9 10 9 9 10 10 10 10 10 10 10 9 9 9 8 8 7 7 7 6 5 6 6 6 5
11 10 7 7 6 6 5 5 6 6 4 3 2 2 2 3 3 8 10 12 13 13 14 13 13 16 14 11 11 13 14 14 16 16 15 16 19 22 22 20 19 18 18 18 19 19 18 18 17 17 18 18 18 17 17 17 16 16 15 15 15 15 14 13 12 12 11 11 10 10 10 10 9 10 10 10 10 10 10 10 10 10 10 9 9 9 8 8 8 8 7 6 5 6 6 6 5
9 9 8 8 7 7 6 6 6 6 6 4 2 1 2 3 0 4 8 9 10 12 12 10 11 13 13 12 9 9 10 10 13 16 16 16 19 21 21 20 19 18 17 18 18 18 18 18 17 17 17 17 17 18 17 17 16 16 15 15 15 15 15 14 14 14 13 12 12 11 11 10 10 10 10 10 11 11 10 10 10 9 9 9 9 9 9 9 8 8 8 8 7 7 7 7 6
Wind_Direction
150 165 189 206 213 230 220 230 286 176 249 196 131 113 92 101 114 117 113 110 98 101 107 104 103 86 88 100 97 71 50 60 65 96 107 120 130 130 127 124 124 122 121 122 124 120 115 113 110 107 107 107 105 101 97 100 107 109 109 112 114 108 109 117 120 122 118 113 109 105 105 109 108 104 104 104 102 101 99 98 98 101 106 106 113 118 117 113 109 107 103 102 101 101 101 100 102
178 194 202 204 215 238 231 172 263 247 229 154 105 100 113 121 118 112 111 111 110 117 113 105 99 77 91 104 100 78 60 66 82 88 100 122 128 129 130 130 128 125 124 124 125 120 114 112 108 104 103 101 99 102 115 129 128 122 118 117 119 120 125 126 120 115 113 111 107 106 106 107 105 104 111 115 110 107 106 105 102 103 103 101 106 113 116 114 110 107 104 103 103 102 101 100 102
196 197 193 196 225 231 269 162 249 258 200 138 108 123 129 123 111 107 112 115 117 117 108 108 102 87 106 103 89 85 80 83 96 98 108 127 129 131 133 132 129 125 125 123 121 117 114 113 105 101 98 95 97 111 131 127 115 115 117 118 122 129 129 122 114 110 111 112 108 108 108 105 107 115 122 116 107 109 111 106 104 103 100 99 100 103 109 112 109 108 106 104 103 100 99 100 102
218 214 206 222 235 210 224 207 206 253 165 139 130 123 122 116 112 110 115 119 118 116 110 111 95 65 85 94 92 93 97 97 103 106 119 132 130 133 135 134 131 125 123 118 116 113 114 114 105 99 94 93 105 125 124 108 106 115 119 122 123 128 126 118 113 108 106 109 108 109 105 100 107 119 122 115 105 107 108 101 97 98 102 109 111 108 102 104 106 108 107 105 103 99 99 100 102
225 223 228 251 260 218 267 241 147 226 137 132 125 115 120 118 115 116 119 120 117 113 110 110 99 86 77 79 94 102 107 109 111 113 120 128 131 135 135 135 131 125 119 114 115 113 115 113 102 99 100 108 118 114 107 109 118 122 122 125 123 129 126 113 111 111 108 112 112 108 105 102 108 114 118 121 112 108 109 102 97 99 106 110 113 112 101 98 100 104 106 104 102 100 99 100 103
223 219 219 232 302 326 277 331 50 152 22 113 123 121 123 121 121 124 123 117 111 110 112 113 107 104 82 66 79 99 114 117 118 118 121 129 134 134 133 134 129 121 115 115 117 116 117 111 101 102 112 123 115 103 109 121 125 123 120 113 110 119 117 110 112 112 110 116 116 109 108 111 114 112 114 118 111 110 109 102 99 100 104 104 107 107 97 89 91 97 101 98 99 100 100 101 103
221 231 208 205 237 251 253 347 290 123 270 232 126 125 126 127 129 127 125 118 113 114 116 111 109 107 95 87 83 90 106 115 119 120 124 131 133 132 133 132 126 119 117 117 115 115 113 105 100 108 122 119 111 114 125 125 115 111 107 99 102 108 107 107 109 107 107 112 114 109 109 118 117 110 114 115 111 112 107 101 101 101 104 106 104 104 98 91 92 93 93 93 95 98 100 101 103
209 253 222 234 239 235 270 3 284 192 180 174 123 126 130 132 132 129 129 124 124 125 119 111 110 102 101 106 96 97 105 112 118 121 126 131 132 133 133 132 127 123 120 115 111 111 107 102 102 113 122 112 114 119 117 113 104 101 98 98 102 103 103 103 104 104 105 109 113 110 108 115 113 110 116 117 114 114 108 104 102 103 108 109 104 101 100 100 98 94 89 89 93 96 100 102 102
188 252 228 254 260 250 264 31 267 155 124 125 115 126 134 133 133 134 131 122 126 126 119 114 109 104 106 106 99 104 107 114 120 123 128 131 133 133 133 134 129 125 122 117 114 112 106 104 106 109 107 105 116 116 108 107 104 105 103 102 102 102 105 105 106 106 107 109 110 110 107 108 110 111 117 118 116 115 112 109 105 105 108 109 107 105 105 105 101 98 91 87 93 99 100 101 100
187 269 264 270 275 246 176 113 196 122 108 115 118 131 136 133 135 138 129 123 129 121 114 112 110 112 114 108 104 111 115 123 125 126 130 132 134 133 134 134 128 128 127 122 118 114 110 108 110 107 101 105 114 110 106 104 103 105 102 103 103 104 108 110 111 111 109 107 106 108 107 108 111 115 119 118 118 118 115 112 109 109 110 107 104 105 110 108 104 103 97 90 91 98 100 100 98
237 260 278 264 252 239 153 154 153 105 107 118 122 135 136 137 138 137 132 127 126 114 114 118 115 116 114 108 106 117 124 129 129 129 133 135 135 134 136 132 129 130 125 121 119 115 111 110 111 106 104 111 113 106 103 102 101 102 100 102 104 104 107 111 112 111 109 106 108 111 112 114 115 119 121 120 121 119 115 112 112 112 114 112 108 108 111 109 105 104 103 100 93 92 96 98 97
266 237 284 262 256 274 120 146 138 112 118 123 132 143 138 147 141 135 143 135 126 118 120 123 119 118 114 110 113 127 132 133 131 133 135 138 137 136 137 131 129 128 123 119 115 114 111 110 110 105 106 110 110 105 103 103 101 102 105 105 106 106 103 108 109 109 107 106 110 113 116 117 117 121 123 123 122 119 116 114 114 115 118 118 116 115 113 109 105 102 103 100 94 92 95 98 101
271 260 281 257 277 314 117 143 140 131 134 129 138 144 143 155 141 137 146 133 127 123 119 125 130 127 117 115 125 135 137 136 135 136 138 140 138 139 139 132 130 129 127 117 114 119 119 114 110 107 108 108 105 102 102 102 102 104 106 105 107 107 107 109 107 107 107 108 111 111 113 115 120 124 125 126 122 119 118 116 116 116 116 116 117 118 116 113 109 105 102 100 100 102 99 102 104
254 273 267 265 288 256 127 148 157 147 145 136 135 143 152 150 136 138 140 130 125 121 117 126 131 122 118 125 134 141 141 139 139 139 139 139 138 140 138 133 133 130 127 120 117 124 124 115 112 111 108 108 105 102 102 101 105 108 107 107 109 108 112 114 108 107 108 109 109 109 112 115 120 123 124 124 120 119 116 114 115 115 113 113 113 114 114 113 113 113 110 106 108 110 105 105 106
262 277 274 292 233 205 146 164 165 150 145 144 146 150 147 134 135 139 137 131 121 120 119 126 129 126 139 143 142 145 143 142 143 141 139 137 137 137 136 135 133 132 128 122 117 120 122 116 113 114 111 111 108 107 109 107 109 112 111 113 111 109 111 111 107 106 106 106 106 108 110 114 119 120 121 121 119 117 113 110 110 112 113 113 112 110 109 109 112 114 109 106 110 115 112 110 108
259 280 265 238 180 171 169 183 170 155 146 143 151 153 140 129 135 133 130 128 120 126 131 129 127 141 151 145 137 141 142 143 144 142 139 135 136 135 136 138 132 132 129 121 113 114 118 116 114 114 114 111 109 117 117 112 113 112 112 113 111 109 109 107 105 104 104 105 107 108 107 110 115 114 114 117 117 114 110 109 108 110 112 113 113 113 112 110 110 108 105 106 115 120 116 111 106
19 284 262 227 153 142 173 195 188 156 143 142 149 154 140 130 127 122 127 131 127 129 129 124 125 143 145 135 133 139 141 142 145 143 139 137 139 139 142 142 134 135 130 123 115 108 110 114 115 114 118 119 120 125 118 115 114 112 112 112 111 109 106 104 103 104 104 104 106 112 110 106 110 112 113 115 115 113 111 111 110 110 112 114 115 114 114 112 110 108 109 114 122 120 110 102 97
178 270 268 268 117 132 189 198 191 148 143 147 150 153 142 137 137 140 142 133 129 127 122 122 127 130 126 128 134 139 141 144 148 146 143 145 146 145 147 145 140 142 135 130 118 110 108 114 116 117 121 124 127 126 121 120 117 116 117 114 113 108 103 103 103 106 105 102 103 110 112 108 109 114 116 117 115 113 112 111 113 114 115 116 116 115 112 109 111 112 115 120 124 115 103 100 98
241 285 290 287 84 199 197 198 206 155 145 146 147 151 143 142 143 150 147 136 138 132 124 124 122 119 120 130 138 141 144 147 151 149 148 150 148 147 146 144 143 143 135 132 123 116 113 110 113 115 117 120 125 125 124 128 127 129 126 118 112 105 103 105 106 110 107 104 106 111 113 111 114 118 118 118 114 113 113 111 114 116 116 117 117 117 112 110 111 114 118 119 119 113 114 129 124
251 289 262 275 316 223 177 176 193 154 144 145 144 146 142 144 145 151 147 141 146 136 130 130 126 127 131 137 141 144 147 149 152 151 150 148 147 147 144 143 143 141 135 132 126 119 115 107 109 113 115 120 126 127 125 131 133 132 130 120 112 106 103 100 105 109 101 96 106 114 114 114 118 120 119 118 114 114 113 113 114 112 111 111 112 112 112 111 108 108 109 110 110 114 133 136 127
183 203 265 320 327 308 160 157 154 147 148 144 141 142 141 142 140 144 147 146 147 139 139 140 137 138 140 143 145 147 149 151 153 152 149 147 149 148 143 143 141 138 132 130 124 119 116 110 112 112 112 123 128 127 124 129 133 128 130 129 123 117 106 96 99 100 95 94 100 109 115 116 117 119 119 117 118 117 115 117 115 113 111 110 111 114 117 114 112 110 90 91 107 119 127 115 110
229 143 9 333 351 29 227 197 148 149 149 143 142 144 138 135 134 141 152 150 138 139 143 142 141 142 144 146 146 148 150 153 154 152 151 150 151 148 143 140 136 133 130 129 124 122 121 114 116 113 111 122 120 123 123 123 125 116 119 129 131 124 113 101 94 88 94 103 102 106 116 115 114 122 125 122 123 122 121 124 122 123 124 125 124 123 125 119 118 124 83 76 109 117 106 99 101
254 58 45 286 154 137 223 218 167 155 147 148 145 141 136 136 133 135 149 137 125 132 138 139 140 142 144 144 145 149 154 156 153 153 155 150 149 145 141 139 134 132 132 134 128 127 126 119 120 117 116 111 107 120 130 126 125 116 114 119 123 120 117 113 107 98 97 106 108 112 117 115 117 126 128 126 127 124 123 125 128 127 124 124 125 124 121 114 111 114 98 90 104 108 104 104 102
247 52 119 203 173 148 191 222 202 162 146 147 141 143 144 139 129 128 136 128 124 126 132 137 138 142 143 143 146 150 153 155 154 153 154 148 146 143 140 138 133 130 134 137 133 133 130 126 125 122 123 121 114 122 128 128 127 125 124 114 108 112 115 118 121 122 114 109 114 117 116 119 126 129 128 130 129 124 122 125 126 125 126 120 114 118 114 107 108 102 95 95 103 108 114 119 115
204 124 146 180 161 150 167 212 214 166 144 142 145 152 143 134 131 134 132 126 126 127 132 138 138 142 144 145 146 147 153 155 153 152 151 147 145 143 141 138 134 134 138 138 134 133 132 131 129 127 131 133 131 130 125 125 123 121 119 109 106 109 112 118 126 130 129 124 122 123 124 128 132 129 129 132 129 127 129 130 127 124 125 116 105 108 109 101 100 97 97 100 100 106 118 121 123
128 152 182 161 144 150 161 224 248 179 142 142 148 146 133 134 136 133 131 128 128 132 138 140 141 143 146 148 146 148 154 153 154 153 149 147 146 147 144 142 140 138 140 137 135 134 133 134 132 131 133 135 137 135 128 124 120 116 111 109 109 109 112 117 124 128 132 134 134 138 138 135 135 131 130 131 129 128 131 131 129 123 111 109 110 104 101 96 94 95 95 96 93 93 105 110 113
111 141 138 122 120 130 148 90 338 11 132 158 149 138 135 143 144 136 135 134 134 138 141 142 144 146 147 148 146 151 154 152 155 151 149 149 148 153 149 145 141 137 141 137 135 137 137 136 133 131 132 134 135 130 127 123 119 115 112 112 111 111 115 118 119 122 126 132 138 140 138 137 135 133 133 131 131 130 131 130 129 126 114 110 111 103 99 94 91 88 72 73 85 97 108 115 114
126 147 117 104 101 111 123 114 79 46 237 181 145 136 144 152 153 144 142 140 140 142 143 145 146 145 146 147 147 153 153 151 154 152 153 152 153 159 150 146 142 140 143 136 136 142 141 138 134 132 131 130 131 129 126 122 119 117 116 113 111 113 117 118 118 120 123 126 132 136 133 134 132 131 131 130 132 130 128 128 123 121 116 111 105 97 93 90 83 74 69 68 85 108 118 117 116
141 172 128 117 127 133 125 118 108 110 268 221 147 144 152 162 151 145 148 144 145 145 145 147 146 145 147 147 150 155 152 153 157 157 157 155 158 160 152 149 146 142 141 136 141 145 140 136 133 132 132 132 133 131 126 123 122 121 119 116 114 117 118 119 119 120 122 123 127 130 127 127 128 128 130 132 132 128 124 122 120 116 109 104 100 91 83 86 84 79 86 89 100 132 131 126 128
134 188 178 139 149 153 138 124 116 119 317 307 207 162 153 154 143 149 155 147 149 149 149 150 146 148 149 149 154 154 153 158 160 159 158 160 162 159 153 151 147 140 138 141 145 142 137 136 136 134 135 135 133 131 127 126 124 122 120 119 120 121 122 123 124 123 122 124 124 124 123 124 127 129 133 137 132 127 126 122 118 113 104 96 93 93 89 89 91 89 99 99 114 140 126 124 126
137 138 217 179 170 149 142 146 134 136 287 305 277 178 148 144 144 158 161 151 152 152 152 152 148 151 151 152 157 153 155 163 163 161 160 162 163 157 153 150 145 140 141 146 143 139 138 137 136 136 136 135 132 131 128 127 124 123 122 122 124 125 128 128 128 128 126 127 126 124 126 125 128 133 135 136 132 129 126 121 114 108 106 96 95 114 113 104 102 97 99 102 125 125 114 114 105
150 121 190 206 197 140 143 175 164 162 211 236 274 185 152 147 153 165 163 153 152 154 156 154 152 153 153 155 158 153 157 165 164 161 162 162 160 155 154 150 146 145 145 144 139 139 138 136 138 137 138 136 134 132 129 127 124 122 122 124 127 129 132 133 133 134 131 132 131 129 130 129 132 136 138 137 133 131 123 120 119 119 121 109 116 153 139 123 115 90 81 74 86 85 156 142 117
184 220 200 188 193 150 151 189 178 166 156 175 190 190 164 151 158 167 164 159 154 155 159 157 156 155 155 158 158 157 160 163 163 161 161 161 158 155 155 152 148 147 145 141 140 140 136 138 141 138 138 137 134 134 131 129 126 124 126 127 133 136 137 137 137 136 135 136 135 135 135 134 136 137 142 145 133 130 126 126 130 132 135 124 137 177 152 133 121 104 83 58 60 344 299 135 123
216 224 189 176 195 161 158 183 178 170 171 176 161 167 205 156 161 169 166 164 159 158 160 160 160 157 158 161 158 160 162 162 160 160 162 161 158 156 155 153 148 146 146 145 144 141 140 142 139 135 139 138 137 137 135 133 132 130 131 133 139 143 142 140 139 138 138 139 137 139 140 139 142 141 145 148 132 131 129 129 133 135 131 127 150 170 131 120 105 103 103 71 33 350 354 71 86
242 237 223 170 182 166 162 171 171 173 181 187 167 170 253 178 166 170 168 168 164 161 162 161 161 159 161 163 159 160 162 161 159 160 162 160 157 156 154 153 150 151 149 146 143 141 141 138 133 136 141 141 140 141 140 139 139 139 138 140 145 150 146 141 140 141 140 140 140 140 142 144 145 145 147 148 135 132 133 129 131 135 125 124 158 150 129 111 80 69 78 54 8 335 338 47 61
156 209 254 145 148 167 154 156 165 170 170 187 182 162 242 194 174 172 171 169 168 165 163 162 162 160 164 166 160 161 163 159 158 161 161 158 159 156 155 154 153 154 147 142 143 143 142 139 137 141 144 144 144 147 148 149 148 148 149 147 151 154 147 145 147 144 139 138 141 142 144 147 148 146 145 147 140 133 136 133 131 132 125 127 148 133 122 107 79 49 60 38 356 288 244 92 76
125 164 234 138 150 164 142 149 155 169 169 174 186 154 162 205 185 177 172 169 172 168 163 162 163 162 167 167 160 162 164 158 159 162 160 158 161 157 154 156 155 151 146 146 149 148 146 146 145 146 148 148 150 153 156 157 155 154 157 159 160 157 149 152 154 147 142 139 140 145 145 146 147 147 144 144 141 135 134 135 135 136 134 133 115 87 95 93 85 52 68 347 342 341 33 93 71
161 166 185 140 157 135 132 150 148 171 178 159 173 163 177 221 211 188 174 172 174 168 164 163 164 165 167 166 162 164 164 158 160 161 159 160 162 159 157 158 156 153 153 155 155 152 152 151 149 151 152 152 154 156 158 159 158 158 162 163 160 155 153 159 160 152 146 142 143 147 146 148 148 148 151 147 143 144 142 142 142 142 138 135 128 122 109 99 77 30 44 338 334 57 64 79 68
243 152 136 139 145 109 115 143 154 175 173 152 178 177 175 217 241 210 176 172 173 169 168 164 164 167 167 167 165 166 164 161 163 162 161 162 162 161 160 159 159 157 158 159 158 156 154 153 153 153 153 154 156 157 159 159 157 159 159 160 156 153 158 159 156 150 145 146 151 152 149 153 153 154 157 152 151 150 146 146 147 144 141 141 147 143 136 132 85 14 70 28 324 242 118 96 70
250 104 115 160 161 160 134 152 166 171 162 161 168 177 152 123 249 223 177 170 171 169 171 166 167 168 166 169 167 168 167 162 166 167 164 162 163 165 163 163 161 161 162 161 161 161 158 157 155 154 153 154 154 154 156 152 148 145 136 141 140 141 149 149 146 148 146 149 155 158 158 159 161 162 163 160 158 152 146 151 150 146 148 146 147 151 159 157 124 60 88 62 318 271 127 105 84
193 127 145 173 168 198 160 158 164 156 158 154 142 150 142 163 234 215 173 174 173 169 172 169 171 170 167 170 170 171 170 166 168 169 166 162 165 168 166 166 164 164 166 163 165 167 162 160 157 154 153 151 152 152 149 143 144 146 137 136 130 131 143 149 155 159 155 156 160 163 165 165 168 167 168 169 162 156 152 152 149 149 154 153 159 165 156 152 131 108 81 46 8 346 64 100 96
216 166 170 139 148 161 145 157 162 162 172 162 162 172 166 199 219 195 167 182 177 170 175 174 171 172 171 173 173 173 171 170 170 169 168 164 166 171 167 169 168 166 169 166 167 169 161 160 158 155 153 151 153 151 147 147 152 156 153 153 151 150 156 161 166 165 161 164 164 164 165 167 171 169 172 173 164 163 160 157 160 157 158 163 170 161 148 153 145 125 87 35 58 34 16 90 108
236 193 173 127 138 151 151 161 167 181 170 163 188 197 139 189 221 199 173 186 189 177 178 178 174 173 175 176 175 175 174 172 173 171 171 167 168 172 170 171 172 168 169 167 166 166 160 159 159 158 157 153 154 154 154 157 158 162 165 166 163 162 163 160 162 162 161 163 161 160 164 167 171 172 173 171 167 169 167 166 170 167 168 169 165 165 173 166 139 122 96 54 62 53 31 48 82
246 167 183 140 146 152 153 164 161 134 113 143 207 233 107 188 217 200 181 190 204 190 182 179 178 177 176 179 177 178 178 173 173 174 174 171 170 173 172 173 175 170 168 167 166 163 159 161 160 160 161 157 158 159 160 160 158 164 171 169 166 165 162 156 156 156 155 157 158 161 166 167 172 176 173 171 172 172 172 175 177 180 180 171 168 179 190 160 124 123 120 90 69 65 55 47 49
156 83 224 141 132 130 154 175 137 139 146 152 195 187 147 208 195 183 182 196 204 195 189 181 180 181 178 182 180 178 179 174 176 177 173 173 172 173 174 175 177 172 167 167 165 161 160 161 161 161 163 161 160 161 163 164 158 161 167 167 167 163 156 157 158 154 152 153 155 159 164 168 173 177 176 176 177 177 177 181 181 188 190 178 180 181 177 157 140 150 151 125 95 74 79 78 68
57 49 240 144 129 127 165 190 111 147 226 173 178 177 186 224 183 177 184 200 201 195 197 185 181 183 181 185 182 178 177 175 179 177 172 175 174 173 174 175 177 171 166 166 165 162 161 162 162 163 164 163 163 163 165 165 159 161 162 161 163 156 151 157 157 152 151 152 155 157 161 170 176 180 182 180 182 182 181 185 185 189 193 189 192 186 167 166 165 171 174 161 116 88 93 101 100
1 229 230 181 155 140 140 148 111 156 253 201 177 176 187 215 194 194 187 191 191 192 197 187 184 185 182 186 184 177 175 175 179 175 172 176 175 175 174 173 174 168 165 167 166 164 163 164 164 164 165 165 165 166 167 166 164 164 159 153 157 157 154 156 155 154 156 157 161 164 166 173 180 183 184 181 184 186 182 187 190 189 194 194 200 196 177 180 184 182 179 179 175 147 124 113 105
256 214 205 222 187 144 118 118 165 207 231 226 179 176 191 210 212 204 187 182 182 183 192 187 186 186 183 185 182 175 174 177 178 172 173 176 174 176 176 172 170 166 166 169 167 165 165 166 165 166 168 168 168 170 171 169 167 165 161 155 155 159 161 160 160 160 161 163 166 167 168 172 177 183 185 185 186 185 181 187 192 193 195 195 199 202 200 200 187 177 176 183 191 194 214 201 247
234 204 197 230 206 172 187 185 199 219 169 160 168 175 201 222 234 207 188 188 182 175 186 189 188 187 185 184 178 172 174 179 178 173 174 174 173 179 178 170 168 167 168 171 169 165 166 167 166 168 170 170 171 173 174 172 171 169 165 161 159 159 164 166 166 165 164 169 171 169 172 175 176 181 185 186 187 182 179 185 190 193 195 195 203 208 216 214 187 174 182 191 201 195 217 245 242
216 206 200 229 227 216 228 204 199 203 147 146 168 184 203 187 226 207 188 191 190 176 171 189 194 187 183 184 178 171 174 180 178 173 175 175 174 180 178 170 169 169 170 175 172 165 166 168 168 170 171 172 173 174 176 176 175 174 170 168 166 164 168 170 173 174 170 174 175 174 178 178 178 182 183 183 184 181 178 183 187 189 193 194 202 207 206 209 205 201 201 205 217 202 221 259 257
208 213 210 229 241 242 255 242 221 189 146 137 171 196 235 142 200 218 185 183 191 174 138 157 196 188 184 185 180 174 175 180 180 175 179 177 174 179 178 172 172 172 172 177 174 166 167 168 169 172 172 173 175 175 178 179 179 180 176 175 174 173 177 176 176 179 177 179 178 175 179 181 179 179 178 175 173 176 176 180 185 188 191 192 197 202 202 207 208 210 227 236 236 218 224 258 272
198 206 214 225 237 247 270 280 65 120 151 117 194 205 36 126 172 182 167 166 178 172 150 169 191 190 193 189 182 180 177 179 181 179 182 178 174 179 179 173 175 176 177 178 175 172 171 169 171 175 173 174 176 176 179 181 181 182 180 181 181 179 182 181 181 184 183 183 180 176 178 181 179 174 172 173 171 174 176 179 186 187 189 192 193 199 201 204 209 213 226 233 237 238 230 253 274
191 208 214 222 240 251 274 266 135 165 183 173 205 177 123 147 158 144 153 158 163 179 190 196 198 203 204 192 183 184 180 178 180 180 183 178 175 178 178 178 180 180 180 180 177 176 174 171 173 176 176 176 177 178 181 182 182 184 183 185 186 185 187 189 190 189 184 180 180 181 181 179 177 173 174 177 174 175 178 178 186 186 186 193 193 196 202 201 207 216 219 222 231 243 242 251 267
220 213 206 213 235 246 267 257 211 220 222 191 210 182 154 185 173 146 161 165 168 183 191 192 198 213 209 191 185 188 182 178 180 182 183 179 176 178 179 183 184 183 183 180 178 178 177 176 176 178 179 179 179 180 182 183 183 185 186 188 192 193 193 195 194 188 184 183 183 184 183 180 179 179 179 177 174 178 181 180 185 184 183 192 194 194 200 201 210 219 219 224 228 233 249 250 257
239 256 240 221 229 223 221 236 244 239 221 179 235 213 180 187 167 159 172 175 174 180 182 184 193 200 201 191 189 190 184 179 181 182 181 180 180 180 183 185 184 184 184 180 180 181 181 181 181 181 181 182 182 182 183 184 185 188 187 188 193 195 197 199 195 188 186 189 190 186 186 184 180 181 180 174 176 182 184 184 187 186 185 189 192 193 197 199 208 217 220 228 225 220 238 249 249
234 255 256 232 229 234 235 238 255 262 240 179 228 219 152 90 173 173 177 182 178 176 179 185 192 192 193 195 192 190 187 180 180 183 182 182 183 183 184 186 183 183 185 183 184 185 184 183 184 184 182 181 184 183 183 186 187 189 188 187 192 195 198 199 195 193 192 192 194 191 188 186 182 183 183 181 185 187 186 189 191 190 190 188 190 195 197 198 205 214 224 233 215 204 224 245 246
215 229 232 224 215 227 248 246 245 264 262 227 232 226 103 79 189 177 172 182 183 183 185 186 192 192 189 194 197 191 188 183 179 183 185 183 184 185 184 184 183 184 187 188 186 185 185 184 185 186 182 181 185 185 185 187 189 191 189 187 191 193 196 199 195 194 195 193 194 195 192 188 187 188 187 186 190 190 189 194 194 193 192 186 189 198 197 197 204 210 221 229 217 211 232 245 244
206 214 223 228 223 221 232 236 239 261 265 238 234 240 112 85 50 147 156 177 182 184 188 187 192 192 184 188 199 192 186 189 187 186 186 184 185 187 184 183 183 183 189 192 188 186 185 183 185 187 184 183 186 186 184 185 189 192 191 191 192 192 195 200 198 195 195 195 194 194 193 190 190 192 191 190 193 193 192 195 196 195 194 186 187 200 203 201 207 210 216 223 219 218 231 239 240